Miscellaneous Local Product
Issued by NWS Hastings, NE

Home | Current Version | Previous Version | Text Only | Print | Product List | Glossary On
Versions: 1 2 3 4 5 6 7 8 9 10 11 12 13 14 15 16 17 18 19 20 21 22 23 24 25 26 27 28 29 30 31 32 33 34 35 36 37 38 39 40 41 42 43 44 45 46 47 48 49 50
606
AXUS43 KGID 170402
MISGRI

GID CWA HOURLY WEATHER ROUNDUP
NATIONAL WEATHER SERVICE HASTINGS NE
1100 PM CDT WED AUG 16 2017

NOTE: "FAIR" INDICATES FEW OR NO CLOUDS BELOW 12,000 FEET WITH NO
SIGNIFICANT WEATHER AND/OR OBSTRUCTIONS TO VISIBILITY.

...SOUTH CENTRAL NEBRASKA...

CITY           SKY/WX    TMP DP  RH WIND       PRES   REMARKS
GRAND ISLAND   CLEAR     62  61  96 W6        29.93S
HASTINGS       CLEAR     64  60  87 NW5       29.95R
KEARNEY        CLEAR     64  60  87 W3        29.96R
ORD            CLEAR     60  57  89 NW5       29.93R
YORK           MOCLDY    63  63 100 NW6       29.93R
AURORA         CLEAR     62  62  99 NW3       29.92S
LEXINGTON      CLEAR     60  58  92 W3        29.98R
HOLDREGE       CLEAR     60  58  93 NW5       29.97R
HEBRON         CLEAR     67  64  91 W3        29.93R

...NEBRASKA PANHANDLE...

CITY           SKY/WX    TMP DP  RH WIND       PRES   REMARKS
CHADRON        CLEAR     61  52  72 CALM      30.02R
ALLIANCE       CLEAR     56  51  84 S5        30.06S
SCOTTSBLUFF    CLEAR     60  53  77 SE3       30.08R
SIDNEY         CLEAR     51  48  89 SW6       30.12R

...WESTERN AND NORTH CENTRAL NEBRASKA...

CITY           SKY/WX    TMP DP  RH WIND       PRES   REMARKS
VALENTINE      CLEAR     57  49  74 W6        29.98S
AINSWORTH      CLEAR     58  56  92 W6        29.99R
ONEILL         CLEAR     63  61  95 NW10      29.91S
BROKEN BOW     CLEAR     64  57  78 NW9       29.96R
IMPERIAL       CLEAR     62  54  74 NW3       30.05S
NORTH PLATTE   CLEAR     56  55  97 NW3       30.01R
MCCOOK         CLEAR     63  60  90 NW8       30.00S

...EASTERN NEBRASKA...

CITY           SKY/WX    TMP DP  RH WIND       PRES   REMARKS
NORFOLK        CLOUDY    64  60  87 W9        29.86S
SO SIOUX CITY  CLOUDY    67  64  90 W12       29.78S
TEKAMAH        PTCLDY    67  62  84 W9G17     29.82R
COLUMBUS       PTCLDY    64  61  90 W6        29.88F
ALBION         PTCLDY    64  61  89 NW7       29.90S
OMAHA EPPLEY   MOCLDY    71  64  78 NW10      29.84R
OFFUTT AFB     CLEAR     70  64  79 W10       29.84R
MILLARD        MOCLDY    71  64  80 W8        29.85S
LINCOLN        PTCLDY    69  62  78 NW8       29.89R
NEBRASKA CITY  CLOUDY    72  69  90 NW14      29.86R
BEATRICE       CLEAR     69  65  88 NW5       29.88S
FALLS CITY     CLOUDY    72  65  78 W8        29.83R

...NORTHERN KANSAS...

CITY           SKY/WX    TMP DP  RH WIND       PRES   REMARKS
GOODLAND       CLEAR     59  56  89 N8        30.08R
HILL CITY      CLEAR     65  62  90 CALM      30.00R
NORTON         CLEAR     63  55  77 W7        29.98
PHILLIPSBURG   CLEAR     63  63 100 W5        29.97S
SMITH CENTER   CLEAR     61  61 100 CALM      29.97R
HAYS           CLEAR     66  61  84 N9        29.99R
RUSSELL        CLEAR     68  60  75 N9        29.97R
CONCORDIA      CLEAR     67  65  93 NW7       29.93R
SALINA         CLEAR     73  65  75 NW6       29.91R
TOPEKA         CLOUDY    74  68  81 SW6       29.84F



USA.gov is the U.S. government's official web portal to all federal, state and local government web resources and services.